Location: Columbia
(38.9520°N, 92.3340°W)
Time: 23:27:10
(UTC-05:00)

Daily predictions for brighter satellites

Satellite Brightness Start Highest point End
(mag) Time Altitude Azimuth Time Altitude Azimuth Time Altitude Azimuth
Cosmos 1821 Rocket 4.2 20:06:47 10° SSE 20:12:39 50° E 20:18:30 10° NNE
Okean 1-7 Rocket 4.0 20:09:21 10° NNW 20:13:42 67° W 20:18:03 10° S
Meteor 1-28 Rocket 4.5 20:11:40 10° N 20:15:21 48° WNW 20:19:00 10° SSW
Cosmos 1633 2.5 20:11:54 10° S 20:15:32 74° E 20:19:11 10° N
Cosmos 1536 2.8 20:11:45 10° S 20:15:43 72° E 20:19:43 10° NNE
Meteor 1-29 3.3 20:12:52 10° N 20:16:18 72° WNW 20:19:44 10° SSW
Cosmos 1346 Rocket 4.0 20:14:08 10° NNE 20:17:23 24° ENE 20:20:40 10° SE
NOSS 2-1 (E) 3.3 20:20:24 10° SSW 20:24:15 75° ESE 20:28:36 10° NE
Cosmos 2227 Rocket 3.1 20:22:19 10° N 20:27:22 32° ENE 20:32:22 10° ESE
Meteor 1-19 Rocket 4.5 20:24:33 10° NNW 20:30:13 76° W 20:35:47 10° S
Meteor 1-5 Rocket 4.2 20:26:56 10° S 20:32:06 55° E 20:37:24 10° NNE
ALOS 2.3 20:28:05 10° SSE 20:32:43 70° ENE 20:37:23 10° N
FENGYUN 3A 3.6 20:28:09 10° SSE 20:33:27 69° ENE 20:38:46 10° N
OE (NEXTSAT) 4.4 20:33:59 10° WNW 20:37:33 85° SSW 20:40:31 14° ESE
Helios 1B rocket 4.3 20:34:10 10° N 20:37:57 35° WNW 20:41:42 10° SW
Cosmos 2082 4.4 20:34:52 10° N 20:40:04 37° ENE 20:44:32 13° SE
Cosmos 1777 Rocket 4.0 20:34:58 10° NNW 20:40:15 78° ENE 20:45:31 10° SSE
Meteor 2-21 Rocket 4.5 20:34:24 10° S 20:40:36 86° E 20:46:49 10° N
Cosmos 2297 Rocket 3.1 20:38:14 10° N 20:43:13 31° ENE 20:47:09 15° ESE
Cosmos 2123 Rocket 4.0 20:39:06 10° N 20:45:13 60° E 20:51:17 10° SSE
Lacrosse 5 3.9 20:44:18 10° NNW 20:47:33 17° NNE 20:50:49 10° ENE
Cosmos 2208 Rocket 4.0 20:44:43 10° S 20:49:58 72° ESE 20:55:21 10° NNE
H-2A R/B 3.7 20:49:23 14° E 20:50:48 17° ENE 20:53:26 10° NNE
Cosmos 1892 Rocket 3.8 20:49:16 10° N 20:53:45 77° W 20:58:13 10° S
SPOT 5 4.4 20:52:32 15° E 20:54:41 20° ENE 20:58:11 10° NNE
Okean 2 3.4 20:51:19 10° N 20:55:31 84° W 20:59:38 10° S
Cosmos 1626 Rocket 4.2 20:51:36 10° N 20:55:43 37° ENE 20:58:22 19° SE
Meteor 2-15 4.4 20:51:00 10° N 20:57:05 90° WNW 21:03:09 10° S
Cosmos 1455 Rocket 3.0 20:54:21 10° S 20:58:40 89° WNW 21:03:02 10° N
BREEZE-M DEB (TANK) 4.0 20:55:17 10° SW 20:59:06 81° SE 21:12:43 10° ENE
Cosmos 1975 3.3 20:55:49 10° SSE 20:59:40 41° E 21:03:33 10° NNE
Meteor 2-15 Rocket 4.4 20:55:51 10° N 21:01:58 85° E 21:08:02 10° S
NOSS 7 (D) 4.3 20:59:20 10° SSW 21:02:51 87° WNW 21:06:13 10° NNE
Cosmos 1602 Rocket 3.9 20:59:24 10° N 21:03:42 45° E 21:06:22 21° SE
NOSS 3-4 (A) 3.8 20:57:39 10° NNW 21:04:44 83° ENE 21:10:47 17° SE
NOSS 3-4 (C) 3.8 20:57:46 10° NNW 21:04:51 82° ENE 21:10:52 17° SE
EO 1 Delta rocket 4.1 21:00:55 10° N 21:05:34 76° W 21:10:48 10° SSW
Cosmos 1570 Rocket 4.3 21:03:12 10° SSW 21:08:29 72° WNW 21:13:47 10° NNE
Resurs 01 Rocket 4.3 21:06:29 10° SW 21:09:41 20° W 21:12:56 10° NW
Cosmos 1461 2.9 21:08:02 10° NNW 21:12:03 59° ENE 21:13:43 31° SE
Lacrosse 5 rocket 2.1 21:08:49 10° NNW 21:12:11 32° NE 21:13:22 26° ENE
Envisat 3.3 21:11:14 23° SE 21:14:03 47° ENE 21:18:54 10° N
Tiangong 1 2.1 21:12:19 10° W 21:15:17 41° N 21:16:48 23° NE
CZ-4 DEB 2.6 21:14:51 35° SSE 21:16:03 75° ENE 21:19:12 10° N
Meteor 1-12 Rocket 4.2 21:12:50 10° S 21:18:32 80° E 21:24:21 10° NNE
USA 186 3.3 21:16:13 10° SSW 21:19:08 33° W 21:21:55 10° NNW
Cosmos 2278 4.0 21:16:01 10° SSW 21:21:39 72° WNW 21:27:22 10° NNE
Cosmos 1697 Rocket 3.0 21:16:38 10° S 21:21:52 40° ESE 21:27:06 10° NE
OTV 4 0.4 21:20:52 10° W 21:23:48 62° S 21:23:53 61° S
Cosmos 1447 Rocket 4.5 21:19:54 10° N 21:26:14 73° E 21:30:55 19° SSE
DELTA 2 R/B (1) 3.5 21:21:25 10° W 21:27:00 87° N 21:29:48 30° E
Cosmos 1939 Rocket 2.8 21:28:30 36° SSE 21:30:05 75° ENE 21:34:15 10° N
Cosmos 2084 4.4 21:29:11 10° NNW 21:32:48 30° NE 21:33:22 29° ENE
ASTEX 1 4.1 21:28:31 10° NNE 21:33:01 33° E 21:33:04 33° E
Delta 2 Rocket 4.3 21:27:56 10° W 21:33:15 49° SSW 21:34:44 37° SSE
Cosmos 220 Rocket 3.8 21:30:23 10° NNW 21:34:36 71° ENE 21:35:36 49° SE
Cosmos 2369 4.1 21:29:00 10° SSW 21:34:37 64° WNW 21:40:17 10° NNE
Iridium 4 Rocket 3.4 21:30:56 10° N 21:36:08 81° W 21:39:24 20° S
Geosat FO 4.5 21:35:13 10° NNE 21:38:50 66° ESE 21:38:50 66° ESE
Terra 4.1 21:40:15 10° NE 21:40:15 10° NE 21:40:41 10° NE
OAO 2 Rocket 3.6 21:37:26 10° WSW 21:42:18 48° S 21:42:57 46° SE
Cosmos 1980 Rocket 2.8 21:44:07 36° E 21:44:07 36° E 21:48:41 10° NE
Cosmos 2016 Rocket 4.3 21:43:29 38° ESE 21:44:49 44° E 21:50:36 10° NNE
Hubble Space Telescope 3.2 21:46:39 10° SW 21:47:42 12° SSW 21:47:42 12° SSW
ARGOS 3.8 21:49:32 35° E 21:49:58 35° ENE 21:54:49 10° N
ERS-1 Rocket 3.5 21:47:33 23° S 21:50:37 57° W 21:55:35 10° NNW
Cosmos 1898 Rocket 3.4 21:48:26 10° NNW 21:53:46 75° ENE 21:54:53 55° SE
Meteor 1-21 4.5 21:50:32 10° N 21:56:08 51° ENE 21:56:52 48° ESE
SL-24 R/B - RUBIN 2 4.4 21:50:35 10° SW 21:56:21 82° WNW 22:02:52 10° NNE
Cosmos 2173 Rocket 3.9 21:53:55 26° S 21:57:44 80° E 22:04:07 10° N
RESURS DK-1 3.3 21:56:03 10° N 21:59:18 37° NE 21:59:18 37° NE
Cosmos 1763 Rocket 4.4 22:04:53 33° NE 22:04:53 33° NE 22:07:57 10° NNE
Cosmos 2061 Rocket 3.9 22:00:39 27° S 22:04:24 89° E 22:10:43 10° N
Cosmos 2100 Rocket 4.0 22:01:59 20° S 22:06:34 81° W 22:12:51 10° N
SL-19 R/B 4.1 22:03:19 10° NNE 22:08:46 63° E 22:08:46 63° E
MetOp-B 4.0 22:10:11 65° SSE 22:11:01 88° ENE 22:16:25 10° NNW
Cosmos 2227 Rocket 3.5 22:06:19 10° NW 22:11:23 35° WSW 22:14:15 22° SSW
Tsikada Rocket 4.4 22:06:19 10° N 22:12:25 44° ENE 22:12:34 44° E
Cosmos 468 Rocket 4.3 22:09:26 14° SSW 22:13:47 64° WNW 22:18:54 10° NNE
Cosmos 2322 Rocket 4.4 22:18:34 11° NE 22:18:34 11° NE 22:18:52 10° NE
Cosmos 2263 Rocket 4.3 22:11:56 10° NNE 22:14:28 13° NE 22:14:41 13° NE
Cosmos 1825 Rocket 3.7 22:11:27 10° N 22:15:24 70° NNW 22:15:24 70° NNW
USA 245 4.3 22:17:06 65° SE 22:18:00 78° ENE 22:24:23 10° N
Cosmos 1814 Rocket 4.3 22:17:57 27° SW 22:20:51 67° WNW 22:26:10 10° NNE
Cosmos 841 Rocket 4.3 22:24:39 39° NE 22:24:39 39° NE 22:28:01 10° NNE
Milstar 3 Cent rocket 4.0 22:06:15 10° W 22:23:44 49° SSW 22:26:27 42° SSE
Cosmos 1953 Rocket 4.1 22:19:44 10° N 22:23:10 53° N 22:23:10 53° N
H-2A R/B 3.2 22:26:32 36° W 22:26:32 36° W 22:30:20 10° NNW
Cosmos 2297 Rocket 3.4 22:22:08 10° NW 22:27:16 36° WSW 22:28:59 29° SW
Cosmos 1340 4.2 22:24:11 10° NNW 22:26:23 33° NNW 22:26:23 33° NNW
Cosmos 2227 4.5 22:22:44 10° NNW 22:28:06 55° NE 22:28:06 55° NE
USA 215 3.6 22:29:23 47° ENE 22:30:41 55° NE 22:37:02 10° NW
Lacrosse 5 2.2 22:26:22 10° NW 22:30:48 59° N 22:30:48 59° N
SPOT 5 3.6 22:31:47 45° WSW 22:32:24 47° W 22:37:11 10° NNW
BREEZE-M TANK 3.6 22:33:45 10° WNW 22:38:57 46° W 22:38:57 46° W
Cosmos 1725 Rocket 3.8 22:42:15 85° NE 22:42:15 85° NE 22:48:23 10° N
H-2A R/B 2.9 22:50:51 40° N 22:50:51 40° N 22:54:08 10° N
Lacrosse 5 rocket 3.9 22:48:21 10° WNW 22:49:06 14° W 22:49:06 14° W
Cosmos 2098 Rocket 4.4 22:55:16 57° SW 22:56:33 68° W 23:02:48 10° N
GEOS 3 Rocket 4.2 22:51:56 10° NNE 22:56:08 52° N 22:56:08 52° N
SL-16 R/B 3.9 23:11:47 24° NNE 23:11:47 24° NNE 23:13:59 10° NNE
Cosmos 2233 Rocket 4.4 23:12:31 56° N 23:12:31 56° N 23:17:19 10° N
Terra 3.5 23:19:09 30° NNW 23:19:09 30° NNW 23:21:33 10° NNW
Cosmos 1980 Rocket 3.8 23:25:46 26° W 23:27:32 30° WNW 23:32:32 10° N
